Regional Weather Roundup
Issued by NWS Bismarck, ND

Home | Current Version | Previous Version | Text Only | Print | Product List | Glossary On
Versions: 1 2 3 4 5 6 7 8 9 10 11 12 13 14 15 16 17 18 19 20 21 22 23 24 25 26 27 28 29 30 31 32 33 34 35 36 37 38 39 40 41 42 43 44 45 46 47 48 49 50
000
ASUS43 KBIS 011510
RWRBIS

NWR BROADCAST TEXT
NATIONAL WEATHER SERVICE BISMARCK ND
1000 AM CDT WED APR 01 2015

NOTE: "FAIR" INDICATES FEW OR NO CLOUDS BELOW 12,000 FEET WITH NO
SIGNIFICANT WEATHER AND/OR OBSTRUCTIONS TO VISIBILITY.


CITY           SKY/WX    TMP DP  RH WIND       PRES   REMARKS
WILLISTON      PTSUNNY   49  34  56 W21       29.58R
MINOT          CLOUDY    47  36  65 NW17G24   29.42R
MINOT AFB      CLOUDY    45  40  82 NW15      29.41R
BISMARCK       MOSUNNY   56  40  55 NW18G31   29.47R
DICKINSON      PTSUNNY   51  34  52 NW30G40   29.55R
GARRISON         N/A     54  41  61 NW26G37   29.46R
HETTINGER ARPT MOSUNNY   53  33  46 NW32G46   29.59R
JAMESTOWN      CLOUDY    50  35  56 S10       29.37R
BEACH          FAIR      48  25  40 NW30G43   29.65S
CARRINGTON     FAIR      52  36  54 W8        29.38S
CROSBY         FAIR      48  36  61 W25G32    29.52R
HARVEY         FAIR      50  37  62 NW25G33   29.37S
HAZEN          FAIR      52  37  58 NW18G32   29.50R
LINTON         FAIR      55  39  54 NW23      29.45R
MANDAN         FAIR      55  39  54 NW29G35   29.47R
OAKES            N/A     59  39  47 S23G30    29.40R
WATFORD CITY   FAIR      48  32  53 NW24G36   29.57R
$$

CITY           SKY/WX    TMP DP  RH WIND       PRES   REMARKS
GRAND FORKS    PTSUNNY   55  35  47 S22G28    29.38F
GRAND FORKS AF MOSUNNY   53  35  50 S18G25    29.36F
DEVILS LAKE    PTSUNNY   48  36  61 S10       29.35S
FARGO          PTSUNNY   59  35  40 S18G30    29.40F
CAVALIER       FAIR      48  36  61 S15G21    29.37F
GWINNER        SUNNY     61  37  41 S20         N/A
ROLLA          FAIR      43  36  75 W7        29.38R
WALHALLA         N/A     48  32  53 SE16      29.36F
$$

CITY           SKY/WX    TMP DP  RH WIND       PRES   REMARKS
ABERDEEN       CLOUDY    60  35  39 S18G25    29.42S
MOBRIDGE       PTSUNNY   57  37  47 NW20      29.45R
BUFFALO          N/A     52  31  44 NW39G46   29.60R
RAPID CITY     MOSUNNY   56  35  45 NW32G44   29.64R
GLASGOW        PTSUNNY   43  30  60 NW25G36   29.69R
SIDNEY         PTSUNNY   48  27  43 W33G41    29.59F
WOLF POINT     PTSUNNY   49  31  49 W29G39    29.65R
GLENDIVE         N/A     50  25  37 W36G46    29.65F
MILES CITY     LGT RAIN  50  24  36 W24       29.76S
BAKER          SUNNY     48  24  39 NW26G41   29.68R
$$

CITY           SKY/WX    TMP DP  RH WIND       PRES   REMARKS
BILLINGS       CLOUDY    44  20  38 W17       29.86S
REGINA         PTSUNNY   43  37  81 NW22      29.51S
ESTEVAN        MOSUNNY   48  39  71 W24G33    29.49R
$$



USA.gov is the U.S. government's official web portal to all federal, state and local government web resources and services.